Weather Roundup
Issued by NWS Chicago, IL

Home | Current Version | Previous Version | Text Only | Print | Product List | Glossary On
Versions: 1 2 3 4 5 6 7 8 9 10 11 12 13 14 15 16 17 18 19 20 21 22 23 24 25 26 27 28 29 30 31 32 33 34 35 36 37 38 39 40 41 42 43 44 45 46 47 48 49 50
000
NZUS59 KLOT 230710
HRRLOT

CHICAGO AREA WEATHER ROUNDUP
NATIONAL WEATHER SERVICE CHICAGO/ROMEOVILLE IL
200 AM CDT TUE SEP 23 2014

NOTE: "FAIR" INDICATES FEW OR NO CLOUDS BELOW 12,000 FEET WITH NO
SIGNIFICANT WEATHER AND/OR OBSTRUCTIONS TO VISIBILITY.

* THESE STATIONS ARE NOT UNDER NWS QUALITY CONTROL. THEY ALSO MAY NOT
  REPORT WEATHER SUCH AS PRECIPITATION OR FOG.

ILZ005-006-012>014-019>023-230800-
NORTHEAST ILLINOIS

CITY           SKY/WX    TMP DP  RH WIND       PRES   REMARKS
OHARE          CLEAR     53  45  74 CALM      30.27S
MIDWAY         CLEAR     53  44  71 S6        30.28S
AURORA         CLEAR     46  42  86 SE3       30.29R
LANSING*       CLEAR     46  44  95 CALM      30.29S
JOLIET*        CLEAR     45  43  95 CALM      30.29S FOG
WAUKEGAN       CLEAR     51  46  83 VRB3      30.26R
DUPAGE AIRPORT CLEAR     48  44  86 S5        30.27S
WHEELING       CLEAR     51  45  79 CALM      30.29S
KANKAKEE*        N/A     45  44  95 CALM      30.30F FOG
MORRIS*        CLEAR     50  49  97 SE3       30.28S
LEWIS AIRPORT* CLEAR     46  44  92 S6        30.29S
NORTHERLY IS     N/A     56  43  61 W6          N/A
$$

WIZ051-052-058>065-066-070>072-230800-
SOUTHEAST WISCONSIN

CITY           SKY/WX    TMP DP  RH WIND       PRES   REMARKS
MILWAUKEE      CLEAR     54  46  74 CALM      30.25S
KENOSHA*       CLEAR     47  45  93 CALM      30.26S
RACINE*        CLEAR     53  46  77 W3        30.27S
BURLINGTON     CLEAR     42  42 100 CALM      30.26S
WAUKESHA       CLEAR     46  45  93 CALM      30.26F
WEST BEND      CLEAR     46  45  93 CALM      30.24S
$$

INZ001>003-010>013-019-020-230800-
NORTHWEST INDIANA

CITY           SKY/WX    TMP DP  RH WIND       PRES   REMARKS
GARY*          CLEAR     48  44  85 CALM      30.29S
MICHIGAN CITY* NOT AVBL
RENSSELAER*    NOT AVBL
VALPARAISO     CLEAR     47  45  93 CALM      30.30R
$$

LMZ740>746-230800-
SOUTHERN LAKE MICHIGAN

STATION/POSITION TIME  SKY/WX   TEMP WIND        PRES    VSBY
                                AIR  DIR/SP/G
                 (UTC)          (F)  (DEG/KT/KT) (MB)    (MI)
HARRISON CRIB    NOT AVBL
BURNHAM HARBOR   0700            56  220/  5/  9   N/A
CALUMET HARBOR   0700            54  210/  5/  6 1024.0S
BURNS HARBOR     NOT AVBL
MICHIGAN CITY    NOT AVBL
$$

ABBREVIATIONS USED IN REMARKS
   TC - TEMPERATURE IN CELSIUS
  WCI - WIND CHILL INDEX
   HX - HEAT INDEX
  VSB - VISIBILITY
$$


USA.gov is the U.S. government's official web portal to all federal, state and local government web resources and services.